Regional Weather Roundup
Issued by NWS

Home | Current Version | Previous Version | Text Only | Print | Product List | Glossary On
Versions: 1 2 3 4 5 6 7 8 9 10 11 12 13 14 15 16 17 18 19 20 21 22 23 24 25 26 27 28 29 30 31 32 33 34 35 36 37 38 39 40 41 42 43 44 45 46 47 48 49 50
000
ASUS43 KMPX 071301
RWRMN
WEATHER ROUNDUP FOR MINNESOTA
NATIONAL WEATHER SERVICE TWIN CITIES/CHANHASSEN MN
700 AM CST WED DEC 07 2016


NOTE: "FAIR" INDICATES FEW OR NO CLOUDS BELOW 12,000 FEET WITH NO
SIGNIFICANT WEATHER AND/OR OBSTRUCTIONS TO VISIBILITY. N/A MEANS
CURRENT SKY AND/OR WEATHER CONDITIONS ARE NOT AVAILABLE.

MNZ060>063-068>070-071400-
   Twin Cities Metro

CITY           SKY/WX    TMP DP  RH WIND       PRES   REMARKS
TWIN CITIES    FLURRIES  17   8  67 W16G25    29.98R WCI   2
ST PAUL        FLURRIES  17  11  77 W15G23    30.00R WCI   2
CRYSTAL        FLURRIES  17   8  67 W21G29    29.96R WCI   0
BLAINE           N/A     19  10  68 W17G25    29.95R WCI   4
LAKEVILLE      FLURRIES  14   9  79 W16G24    30.00R WCI  -2
EDEN PRAIRIE   CLOUDY    17   8  67 W14G23    29.99R WCI   3
SOUTH ST PAUL  CLOUDY    18  10  70 W17       29.99R WCI   2
LAKE ELMO      FLURRIES  19  12  73 W16G24    29.97R WCI   5
$$
MNZ001>005-007-008-013>017-022>024-027-028-071400-
   Northwest Minnesota

CITY           SKY/WX    TMP DP  RH WIND       PRES   REMARKS
BEMIDJI        LGT SNOW  14  10  85 W24       29.75R WCI  -6
HALLOCK        CLOUDY    18  16  93 NW28G33   29.79R FOG     WCI  -1
ROSEAU         CLOUDY    21  18  86 W15G23    29.69R WCI   8
WARROAD        CLOUDY    21  18  86 W12       29.66R WCI   9
THIEF RVR FALL LGT SNOW  14  11  87 W24       29.80R FOG     WCI  -5
CROOKSTON      LGT SNOW  16  12  86 NW25      29.87R VSB 1   WCI  -3
FOSSTON        LGT SNOW  12  10  92 W22G30    29.81R WCI  -7
DETROIT LAKES  LGT SNOW  12  10  92 W15G23    29.88R WCI  -4
MOORHEAD       CLOUDY    12   7  79 W25G32    29.96R WCI  -8
PARK RAPIDS    LGT SNOW  13   6  74 W20       29.81R WCI  -5
$$
MNZ006-009>011-018-025>026-071400-
   North Central Minnesota

CITY           SKY/WX    TMP DP  RH WIND       PRES   REMARKS
BAUDETTE       CLOUDY    21  17  84 W15       29.62R WCI   8
FLAG ISLAND    CLOUDY    25  21  86 NW18      29.62R WCI  11
INTL FALLS     LGT SNOW  22  19  89 W10       29.58R VSB 3/4 WCI  11
WASKISH        FLURRIES  19  16  86 W23G32    29.67R WCI   2
BIG FORK       LGT SNOW  18  16  93 W10G17    29.65R WCI   6
LONGVILLE      FLURRIES  14   9  79 W10G16    29.77R WCI   1
GRAND RAPIDS   LGT SNOW  16  11  80 W16G28    29.72R WCI   1
CRANE LAKE     LGT SNOW  21  18  86 SW6       29.59R WCI  14
COOK           LGT SNOW  18  16  93 SW14      29.61R WCI   4
$$
MNZ012-019>021-037-071400-
   Northeast Minnesota

CITY           SKY/WX    TMP DP  RH WIND       PRES   REMARKS
DULUTH         LGT SNOW  15  10  80 W22G28    29.69R BLWGSNOWWCI  -3
ELY            LGT SNOW  19  16  86 W13G18    29.57R WCI   7
HIBBING        LGT SNOW  17  13  84 W9        29.65R FOG     WCI   6
EVELETH        LGT SNOW  18  14  84 SW13      29.65R WCI   5
DULUTH HARBOR  CLOUDY    19  16  86 SW17G28   29.76R WCI   4
TWO HARBORS    MOCLDY    19  12  73 SW13G22   29.66R WCI   7
GRAND MARAIS     N/A     25  20  81 W10G17    29.60R WCI  15
G MARAIS ARPRT LGT SNOW  18  12  79 SW9       29.52R WCI   6
$$
MNZ029>031-032-039>041-046>048-054>057-064-071400-
   West Central Minnesota

CITY           SKY/WX    TMP DP  RH WIND       PRES   REMARKS
FERGUS FALLS   LGT SNOW  10   7  85 W23G29    30.02R WCI -10
WHEATON        CLOUDY    14   9  79 W21G29    30.05R WCI  -4
MORRIS         LGT SNOW  12   7  79 W28G35    30.00R WCI  -9
ALEXANDRIA     LGT SNOW  11   7  84 W23G31    29.94S FOG     WCI  -9
ELBOW LAKE     LGT SNOW  11   7  84 NW23G30   29.99R WCI  -9
WADENA         LGT SNOW  10   7  85 W16G25    29.87R WCI  -7
GLENWOOD       LGT SNOW  10   9  92 W23G32    29.96R WCI -10
APPLETON       CLOUDY    16   7  67 W20G30    30.05R WCI  -1
BENSON         FLURRIES  14   7  73 NW25G35   30.02R WCI  -5
ORTONVILLE     MOCLDY    12   3  67 W22G30    30.05R WCI  -7
MADISON        CLEAR     12   7  79 NW21G29   30.08R WCI  -6
WILLMAR        FLURRIES  16  10  79 W24G30    30.02R WCI  -3
$$
MNZ033>034-036-042>043-049>051-058-059-071400-
   Central Minnesota

CITY           SKY/WX    TMP DP  RH WIND       PRES   REMARKS
ST CLOUD       CLOUDY    14   8  77 W21G29    29.94R WCI  -4
PAYNESVILLE    FLURRIES  14   9  79 W23G30    29.98R WCI  -5
AITKIN         MIX PCPN  18   7  62 SW12G24   29.78R WCI   5
PINE RIVER     FLURRIES  12   9  85 W12G21    29.84R WCI  -2
BRAINERD       FLURRIES  13   7  77 W22G31    29.84R WCI  -6
STAPLES        CLOUDY    10   7  85 W17G24    29.87R WCI  -7
LONG PRAIRIE   LGT SNOW  12   7  79 SW18G25   29.92R WCI  -5
LITTLE FALLS   FLURRIES  14   9  79 W16G24    29.91R WCI  -2
LITCHFIELD     FLURRIES  16  10  79 W12       29.99R WCI   3
BUFFALO        FLURRIES  17  10  73 W20G26    29.99R WCI   0
MAPLE LAKE     CLOUDY    17  10  75 W17G24    29.98R WCI   1
HUTCHINSON     CLOUDY    15  10  81 W24G31    30.01R WCI  -4
$$
MNZ037-044-045-052-053-071400-
   East Central Minnesota

CITY           SKY/WX    TMP DP  RH WIND       PRES   REMARKS
PRINCETON      CLOUDY    18   9  68 W17G29    29.92R WCI   2
MORA           PTCLDY    14   9  79 W16G24    29.88R WCI  -2
CAMBRIDGE      FLURRIES  18   9  68 SW10G21   29.90R WCI   6
RUSH CITY      CLOUDY    16   9  73 W14G25    29.90R WCI   1
MOOSE LAKE     CLOUDY    18  10  73 W16G23    29.78R WCI   3
HINCKLEY       CLOUDY    18  10  73 SW13G20   29.85R WCI   4
CLOQUET        LGT SNOW  16  10  79 SW18      29.72R WCI  -1
MCGREGOR       CLOUDY    18  10  73 W10G22    29.78R WCI   6
$$
MNZ071>073-080-081-089-090-097-098-071400-
   Southwest Minnesota

CITY           SKY/WX    TMP DP  RH WIND       PRES   REMARKS
MONTEVIDEO     CLOUDY    14   7  73 NW22G28   30.06S WCI  -4
GRANITE FALLS  CLOUDY    14   7  73 W23G31    30.08S WCI  -5
CANBY          CLEAR     11   5  75 W13G23    30.09R WCI  -4
MARSHALL       CLEAR      9   3  77 NW22G28   30.07R WCI -11
REDWOOD FALLS  CLOUDY    13   4  67 W23G31    30.06R WCI  -6
OLIVIA         FLURRIES  16   9  73 W22G29    30.03R WCI  -2
PIPESTONE      CLEAR      9   3  78 NW22G28   30.08S WCI -11
WINDOM         CLEAR      9   3  78 W18G24    30.07S WCI -10
WORTHINGTON    CLEAR      7   3  84 W22G29    30.10R WCI -14
JACKSON        CLEAR      9   3  78 W21G30    30.08S WCI -11
TRACY          CLEAR     10   5  79 W13G20    30.08R WCI  -5
SLAYTON        CLEAR      7   3  82 W28G36    30.07R WCI -15
$$
MNZ065>067-074>077-082>085-091>093-071400-
   South Central Minnesota

CITY           SKY/WX    TMP DP  RH WIND       PRES   REMARKS
MANKATO        CLOUDY    13   6  74 W17G29    30.06R WCI  -4
NEW ULM        CLOUDY    12   5  73 W21       30.06R WCI  -6
ST JAMES       MOCLDY    12   7  79 W16G25    30.09R WCI  -4
FAIRMONT       CLEAR     11   5  77 W20       30.09R WCI  -7
GLENCOE        CLOUDY    16  11  83 W15G22    30.01R WCI   1
FARIBAULT      CLOUDY    16   9  73 MISG      30.04R
OWATONNA       FLURRIES  14   7  73 W18G24    30.04R WCI  -3
WASECA         CLOUDY    14  10  85 W22       30.07R WCI  -4
ALBERT LEA     CLEAR     16  10  79 W13G21    30.06R WCI   2
$$
MNZ078>079-086>088-094>096-071400-
   Southeast Minnesota

CITY           SKY/WX    TMP DP  RH WIND       PRES   REMARKS
ROCHESTER      FLURRIES  14   9  80 W21G26    30.01R WCI  -4
RED WING       CLOUDY    18   9  68 W18G26    29.99R WCI   2
STANTON        CLOUDY    17  10  72 W14G23    30.01R WCI   3
DODGE CENTER   FLURRIES  12   9  85 W22G29    30.01R WCI  -7
WINONA         CLOUDY    19  12  73 W10G16    30.04R WCI   8
AUSTIN         MOCLDY    12   7  79 W13G21    30.05R WCI  -3
PRESTON        LGT SNOW  13   8  81 W16G26    30.03R WCI  -4
$$
ABBREVIATIONS USED IN REMARKS
   TC - TEMPERATURES IN CELSIUS
  WCI - WIND CHILL INDEX
   HX - HEAT INDEX
  VSB - VISIBILITY
$$




USA.gov is the U.S. government's official web portal to all federal, state and local government web resources and services.